BOV267 SLCB-SLTR

Flight info

Callsign BOV267
Flight time 0h 39m
Altitude 24000
Route PUNAV UW12 EKAVI
Aircraft B737/M-SDE2E3FGHIRWXY/LB1

Departure

Time 2026-05-06 22:07
Airport Jorge Wilsterman International Airport (SLCB)

Arrival

Time 2026-05-06 22:47
Airport Teniente Av. Jorge Henrich Arauz Airport (SLTR)
Time Latitude Longitude Altitude Speed Heading
2026-05-06 21:54 -17.41504 -66.17911 8361 ft 0 kts 44°
2026-05-06 21:57 -17.41510 -66.17918 8361 ft 2 kts 43°
2026-05-06 21:57 -17.41519 -66.17926 8363 ft 1 kts 42°
2026-05-06 21:57 -17.41528 -66.17935 8363 ft 2 kts 44°
2026-05-06 21:57 -17.41529 -66.17936 8363 ft 0 kts 43°
2026-05-06 21:58 -17.41531 -66.17938 8361 ft 2 kts 42°
2026-05-06 21:58 -17.41543 -66.17949 8360 ft 5 kts 37°
2026-05-06 21:59 -17.41548 -66.17953 8360 ft 1 kts 49°
2026-05-06 21:59 -17.41549 -66.17953 8360 ft 1 kts 53°
2026-05-06 21:59 -17.41548 -66.17953 8360 ft 0 kts 50°
2026-05-06 21:59 -17.41554 -66.17965 8361 ft 0 kts 133°
2026-05-06 22:02 -17.41567 -66.17952 8360 ft 10 kts 136°
2026-05-06 22:02 -17.41638 -66.17921 8360 ft 10 kts 197°
2026-05-06 22:02 -17.41683 -66.17931 8360 ft 15 kts 180°
2026-05-06 22:02 -17.41714 -66.17916 8360 ft 10 kts 133°
2026-05-06 22:03 -17.41816 -66.17793 8360 ft 29 kts 132°
2026-05-06 22:03 -17.41950 -66.17640 8361 ft 27 kts 132°
2026-05-06 22:03 -17.42076 -66.17493 8361 ft 31 kts 132°
2026-05-06 22:03 -17.42190 -66.17360 8360 ft 40 kts 131°
2026-05-06 22:04 -17.42222 -66.17323 8360 ft 42 kts 130°
2026-05-06 22:04 -17.42430 -66.17073 8360 ft 45 kts 133°
2026-05-06 22:04 -17.42551 -66.16987 8359 ft 7 kts 206°
2026-05-06 22:04 -17.42612 -66.17033 8359 ft 15 kts 218°
2026-05-06 22:05 -17.42667 -66.17053 8360 ft 7 kts 167°
2026-05-06 22:05 -17.42762 -66.16956 8360 ft 30 kts 133°
2026-05-06 22:05 -17.42861 -66.16841 8361 ft 32 kts 133°
2026-05-06 22:05 -17.43001 -66.16676 8362 ft 29 kts 131°
2026-05-06 22:06 -17.43144 -66.16473 8361 ft 13 kts 110°
2026-05-06 22:06 -17.43163 -66.16459 8361 ft 1 kts 196°
2026-05-06 22:06 -17.43164 -66.16465 8361 ft 5 kts 258°
2026-05-06 22:06 -17.43062 -66.16607 8361 ft 56 kts 311°
2026-05-06 22:07 -17.42653 -66.17093 8360 ft 120 kts 311°
2026-05-06 22:07 -17.42188 -66.17622 8362 ft 158 kts 313°
2026-05-06 22:07 -17.41509 -66.18408 8588 ft 177 kts 309°
2026-05-06 22:07 -17.40384 -66.19651 9613 ft 180 kts 310°
2026-05-06 22:08 -17.39842 -66.20360 10015 ft 187 kts 309°
2026-05-06 22:08 -17.38986 -66.21476 10335 ft 210 kts 310°
2026-05-06 22:08 -17.38011 -66.22719 10503 ft 230 kts 310°
2026-05-06 22:08 -17.36952 -66.24044 10626 ft 251 kts 310°
2026-05-06 22:09 -17.35955 -66.25627 10826 ft 269 kts 292°
2026-05-06 22:09 -17.35571 -66.27557 11262 ft 274 kts 270°
2026-05-06 22:09 -17.35958 -66.29518 11866 ft 277 kts 245°
2026-05-06 22:09 -17.37081 -66.31149 12283 ft 291 kts 222°
2026-05-06 22:10 -17.38964 -66.32219 12435 ft 318 kts 195°
2026-05-06 22:10 -17.41232 -66.32280 12567 ft 343 kts 168°
2026-05-06 22:10 -17.43413 -66.31183 12636 ft 366 kts 141°
2026-05-06 22:10 -17.44978 -66.29050 12958 ft 376 kts 112°
2026-05-06 22:11 -17.45496 -66.26369 13611 ft 380 kts 88°
2026-05-06 22:11 -17.44905 -66.23660 14186 ft 383 kts 67°
2026-05-06 22:11 -17.43852 -66.21087 14767 ft 387 kts 68°
2026-05-06 22:11 -17.42778 -66.18484 15229 ft 393 kts 58°
2026-05-06 22:12 -17.41762 -66.17156 15542 ft 394 kts 43°
2026-05-06 22:12 -17.40769 -66.16337 15830 ft 394 kts 31°
2026-05-06 22:12 -17.38334 -66.15006 16345 ft 399 kts 28°
2026-05-06 22:12 -17.35945 -66.13462 16783 ft 405 kts 34°
2026-05-06 22:13 -17.33639 -66.11768 17478 ft 404 kts 36°
2026-05-06 22:13 -17.31356 -66.10027 18014 ft 408 kts 37°
2026-05-06 22:13 -17.29041 -66.08254 18398 ft 416 kts 37°
2026-05-06 22:13 -17.26703 -66.06481 19019 ft 412 kts 36°
2026-05-06 22:14 -17.24358 -66.04719 19492 ft 416 kts 36°
2026-05-06 22:14 -17.21981 -66.02947 19864 ft 421 kts 35°
2026-05-06 22:14 -17.19630 -66.01202 20488 ft 418 kts 35°
2026-05-06 22:14 -17.17252 -65.99441 20948 ft 420 kts 34°
2026-05-06 22:15 -17.14851 -65.97665 21343 ft 423 kts 34°
2026-05-06 22:15 -17.12448 -65.95876 21798 ft 425 kts 35°
2026-05-06 22:15 -17.10046 -65.94078 22271 ft 425 kts 34°
2026-05-06 22:15 -17.07616 -65.92294 22732 ft 426 kts 34°
2026-05-06 22:16 -17.05174 -65.90502 23131 ft 428 kts 34°
2026-05-06 22:16 -17.02767 -65.88728 23680 ft 425 kts 34°
2026-05-06 22:16 -17.00376 -65.86947 24106 ft 420 kts 34°
2026-05-06 22:16 -16.98010 -65.85167 24219 ft 419 kts 34°
2026-05-06 22:17 -16.95616 -65.83361 24215 ft 428 kts 34°
2026-05-06 22:17 -16.93176 -65.81522 24212 ft 434 kts 34°
2026-05-06 22:17 -16.90763 -65.79706 24178 ft 432 kts 34°
2026-05-06 22:17 -16.88328 -65.77876 24173 ft 429 kts 34°
2026-05-06 22:18 -16.85897 -65.76051 24153 ft 429 kts 34°
2026-05-06 22:18 -16.83433 -65.74314 24137 ft 427 kts 29°
2026-05-06 22:18 -16.80757 -65.72971 24136 ft 425 kts 20°
2026-05-06 22:18 -16.78025 -65.71880 24122 ft 425 kts 19°
2026-05-06 22:19 -16.75242 -65.70806 24108 ft 425 kts 19°
2026-05-06 22:19 -16.72463 -65.69739 24102 ft 426 kts 19°
2026-05-06 22:19 -16.69669 -65.68660 24092 ft 426 kts 19°
2026-05-06 22:19 -16.66924 -65.67590 24082 ft 427 kts 20°
2026-05-06 22:20 -16.64111 -65.66485 24077 ft 427 kts 20°
2026-05-06 22:20 -16.61361 -65.65400 24066 ft 427 kts 20°
2026-05-06 22:20 -16.58563 -65.64293 24057 ft 427 kts 20°
2026-05-06 22:20 -16.55812 -65.63203 24052 ft 428 kts 20°
2026-05-06 22:21 -16.53027 -65.62100 24049 ft 428 kts 20°
2026-05-06 22:21 -16.50242 -65.60996 24035 ft 428 kts 20°
2026-05-06 22:21 -16.47455 -65.59893 24037 ft 427 kts 20°
2026-05-06 22:21 -16.44674 -65.58792 24029 ft 427 kts 20°
2026-05-06 22:22 -16.41877 -65.57686 24028 ft 427 kts 20°
2026-05-06 22:22 -16.39102 -65.56588 24022 ft 427 kts 20°
2026-05-06 22:22 -16.36363 -65.55505 24018 ft 427 kts 20°
2026-05-06 22:22 -16.33581 -65.54406 24013 ft 426 kts 20°
2026-05-06 22:23 -16.30813 -65.53313 24011 ft 426 kts 20°
2026-05-06 22:23 -16.28041 -65.52218 24006 ft 426 kts 20°
2026-05-06 22:23 -16.25263 -65.51121 24006 ft 426 kts 20°
2026-05-06 22:23 -16.22491 -65.50027 24002 ft 425 kts 20°
2026-05-06 22:24 -16.19716 -65.48932 24000 ft 425 kts 20°
2026-05-06 22:24 -16.16979 -65.47852 23998 ft 425 kts 20°
2026-05-06 22:24 -16.14214 -65.46762 23993 ft 425 kts 20°
2026-05-06 22:24 -16.11440 -65.45669 23991 ft 425 kts 20°
2026-05-06 22:25 -16.08686 -65.44583 23990 ft 425 kts 20°
2026-05-06 22:25 -16.05900 -65.43485 23986 ft 425 kts 20°
2026-05-06 22:25 -16.03131 -65.42395 23983 ft 425 kts 20°
2026-05-06 22:25 -16.00366 -65.41306 23983 ft 425 kts 20°
2026-05-06 22:26 -15.97631 -65.40229 23977 ft 424 kts 20°
2026-05-06 22:26 -15.94871 -65.39143 23982 ft 424 kts 20°
2026-05-06 22:26 -15.92147 -65.38071 23957 ft 411 kts 20°
2026-05-06 22:26 -15.89502 -65.37031 23953 ft 399 kts 20°
2026-05-06 22:27 -15.86902 -65.36009 23962 ft 397 kts 20°
2026-05-06 22:27 -15.84344 -65.35003 23971 ft 397 kts 20°
2026-05-06 22:27 -15.81744 -65.33981 23649 ft 401 kts 20°
2026-05-06 22:27 -15.79128 -65.32954 23185 ft 400 kts 20°
2026-05-06 22:28 -15.76524 -65.31931 22652 ft 396 kts 20°
2026-05-06 22:28 -15.73994 -65.30937 22132 ft 393 kts 21°
2026-05-06 22:28 -15.71435 -65.29932 21632 ft 389 kts 21°
2026-05-06 22:28 -15.68935 -65.28951 21120 ft 387 kts 21°
2026-05-06 22:29 -15.66422 -65.27965 20616 ft 384 kts 21°
2026-05-06 22:29 -15.63925 -65.26985 20096 ft 382 kts 21°
2026-05-06 22:29 -15.61433 -65.26008 19590 ft 381 kts 21°
2026-05-06 22:29 -15.58954 -65.25037 19066 ft 380 kts 20°
2026-05-06 22:30 -15.56428 -65.24254 18461 ft 381 kts 13°
2026-05-06 22:30 -15.53826 -65.23655 17829 ft 382 kts 12°
2026-05-06 22:30 -15.51254 -65.23093 17250 ft 380 kts 12°
2026-05-06 22:30 -15.48667 -65.22534 16742 ft 377 kts 12°
2026-05-06 22:31 -15.46119 -65.21978 16224 ft 374 kts 12°
2026-05-06 22:31 -15.43568 -65.21416 15732 ft 371 kts 12°
2026-05-06 22:31 -15.41053 -65.20858 15227 ft 369 kts 12°
2026-05-06 22:31 -15.38537 -65.20296 14711 ft 367 kts 12°
2026-05-06 22:32 -15.36046 -65.19737 14199 ft 366 kts 12°
2026-05-06 22:32 -15.33589 -65.19186 13695 ft 364 kts 11°
2026-05-06 22:32 -15.31110 -65.18629 13146 ft 363 kts 11°
2026-05-06 22:32 -15.28645 -65.18075 12637 ft 359 kts 11°
2026-05-06 22:33 -15.26214 -65.17529 12125 ft 352 kts 11°
2026-05-06 22:33 -15.23859 -65.16999 11637 ft 340 kts 11°
2026-05-06 22:33 -15.21600 -65.16491 11172 ft 330 kts 11°
2026-05-06 22:33 -15.19394 -65.15995 10723 ft 321 kts 11°
2026-05-06 22:34 -15.17242 -65.15512 10383 ft 309 kts 10°
2026-05-06 22:34 -15.15193 -65.15051 10234 ft 297 kts 10°
2026-05-06 22:34 -15.13203 -65.14604 10102 ft 287 kts 10°
2026-05-06 22:34 -15.11271 -65.14170 9972 ft 277 kts 10°
2026-05-06 22:35 -15.09409 -65.13753 9729 ft 273 kts
2026-05-06 22:35 -15.07547 -65.13337 9394 ft 272 kts 10°
2026-05-06 22:35 -15.05730 -65.12931 9072 ft 271 kts
2026-05-06 22:35 -15.03894 -65.12520 8739 ft 270 kts
2026-05-06 22:36 -15.02055 -65.12108 8415 ft 269 kts 10°
2026-05-06 22:36 -15.00239 -65.11702 8089 ft 268 kts 10°
2026-05-06 22:36 -14.98411 -65.11293 7759 ft 267 kts 10°
2026-05-06 22:36 -14.96589 -65.10885 7430 ft 267 kts 10°
2026-05-06 22:37 -14.94766 -65.10477 7103 ft 266 kts 10°
2026-05-06 22:37 -14.92959 -65.10072 6781 ft 266 kts 10°
2026-05-06 22:37 -14.91162 -65.09670 6357 ft 270 kts 10°
2026-05-06 22:37 -14.89313 -65.09256 5984 ft 271 kts 11°
2026-05-06 22:38 -14.87474 -65.08845 5625 ft 268 kts 10°
2026-05-06 22:38 -14.85710 -65.08448 5520 ft 249 kts 11°
2026-05-06 22:38 -14.84087 -65.08084 5397 ft 228 kts 11°
2026-05-06 22:38 -14.82593 -65.07749 5262 ft 209 kts 10°
2026-05-06 22:39 -14.81233 -65.07445 5116 ft 192 kts 10°
2026-05-06 22:39 -14.79966 -65.07162 4818 ft 186 kts 10°
2026-05-06 22:39 -14.78701 -65.06880 4509 ft 181 kts 11°
2026-05-06 22:39 -14.77484 -65.06608 4272 ft 179 kts 11°
2026-05-06 22:40 -14.76281 -65.06340 4090 ft 179 kts 11°
2026-05-06 22:40 -14.75091 -65.06074 4011 ft 169 kts 11°
2026-05-06 22:40 -14.73916 -65.05811 4017 ft 175 kts 11°
2026-05-06 22:40 -14.73419 -65.05701 4012 ft 177 kts 11°
2026-05-06 22:42 -14.73067 -65.05622 3995 ft 179 kts 11°
2026-05-06 22:42 -14.71875 -65.05235 3826 ft 188 kts 33°
2026-05-06 22:42 -14.71127 -65.04172 3649 ft 187 kts 74°
2026-05-06 22:42 -14.71259 -65.02858 3357 ft 189 kts 118°
2026-05-06 22:43 -14.72125 -65.01854 3142 ft 187 kts 134°
2026-05-06 22:43 -14.73057 -65.00899 2848 ft 188 kts 133°
2026-05-06 22:43 -14.73950 -64.99978 2579 ft 180 kts 133°
2026-05-06 22:43 -14.74823 -64.99076 2282 ft 176 kts 133°
2026-05-06 22:44 -14.75689 -64.98179 2061 ft 178 kts 133°
2026-05-06 22:44 -14.76569 -64.97271 1815 ft 175 kts 133°
2026-05-06 22:44 -14.77404 -64.96409 1591 ft 167 kts 133°
2026-05-06 22:44 -14.78072 -64.95719 1413 ft 164 kts 133°
2026-05-06 22:45 -14.78396 -64.95382 1326 ft 163 kts 134°
2026-05-06 22:45 -14.78742 -64.95025 1246 ft 163 kts 135°
2026-05-06 22:46 -14.79545 -64.94197 1062 ft 160 kts 135°
2026-05-06 22:46 -14.80315 -64.93411 771 ft 151 kts 135°
2026-05-06 22:46 -14.81049 -64.92655 560 ft 145 kts 134°
2026-05-06 22:46 -14.81707 -64.91980 511 ft 118 kts 135°
2026-05-06 22:47 -14.81972 -64.91699 514 ft 10 kts 136°
2026-05-06 22:47 -14.82074 -64.91590 517 ft 29 kts 135°
2026-05-06 22:47 -14.82158 -64.91553 517 ft 7 kts 237°
2026-05-06 22:47 -14.82174 -64.91653 518 ft 16 kts 270°
2026-05-06 22:48 -14.82189 -64.91746 518 ft 15 kts 239°
2026-05-06 22:49 -14.82209 -64.91775 518 ft 9 kts 246°
2026-05-06 22:49 -14.82189 -64.91811 518 ft 10 kts 320°
2026-05-06 22:49 -14.82109 -64.91889 517 ft 17 kts 313°
2026-05-06 22:50 -14.82106 -64.91923 517 ft 3 kts 219°
2026-05-06 22:50 -14.82122 -64.91936 517 ft 3 kts 223°
2026-05-06 22:50 -14.82126 -64.91939 518 ft 0 kts 224°